"Time","Temp","Dewpoint","Humidity","Pressure","Direction","Speed","Gust","Precip","PrecipRate"
"00:04:59","34.9","30.2","82.8","29.80","202","0.1","1.2","0.00","0.00"
"00:09:58","34.6","30","83","29.80","202","0","0","0.00","0.00"
"00:14:59","34.4","29.9","83.2","29.80","202","0","0","0.00","0.00"
"00:19:58","34.1","29.8","84","29.79","202","0","2.4","0.00","0.00"
"00:24:57","33.5","29.3","84.5","29.79","202","1.4","3.6","0.00","0.00"
"00:29:56","33","29.2","85.5","29.79","202","0.1","2.4","0.00","0.00"
"00:34:59","32.6","29","86.1","29.79","202","1.4","2.4","0.00","0.00"
"00:39:57","32.4","29","87","29.79","202","1.9","3.6","0.00","0.00"
"00:44:56","32.2","28.8","87","29.79","202","0.4","2.4","0.00","0.00"
"00:49:59","31.7","28.2","86.5","29.78","202","0.6","2.4","0.00","0.00"
"00:54:58","31.3","27.9","87","29.78","202","0","0","0.00","0.00"
"00:59:58","31.1","27.9","87.7","29.79","202","0","0","0.00","0.00"
"01:04:56","30.9","27.8","88","29.79","202","0","1.2","0.00","0.00"
"01:09:56","30.9","27.9","88.9","29.79","202","1","2.4","0.00","0.00"
"01:14:58","31","28.1","89","29.79","202","1.6","2.4","0.00","0.00"
"01:19:56","31","28.1","89","29.79","202","1.7","2.4","0.00","0.00"
"01:24:59","31","28.1","89","29.79","202","1.4","2.4","0.00","0.00"
"01:29:59","31.1","28.5","89.9","29.79","202","1.4","2.4","0.00","0.00"
"01:34:57","31.1","28.5","90","29.79","202","0.7","2.3","0.00","0.00"
"01:39:59","31.2","28.6","90","29.79","202","0.6","1.2","0.00","0.00"
"01:44:59","31.4","28.8","90","29.79","202","0","0","0.00","0.00"
"01:49:58","31.4","28.8","90","29.79","202","1.4","2.4","0.00","0.00"
"01:54:56","31.5","28.9","90","29.79","202","1.6","2.4","0.00","0.00"
"01:59:59","31.7","29.1","90","29.80","202","0.8","2.4","0.00","0.00"
"02:04:58","31.8","29.1","89.6","29.80","202","0","0","0.00","0.00"
"02:09:57","31.9","29.1","89.2","29.80","202","0","0","0.00","0.00"
"02:14:59","32","29.1","89","29.81","202","0","0","0.00","0.00"
"02:19:58","32","29.1","89","29.81","202","0","0","0.00","0.00"
"02:24:57","32.1","29.2","89.1","29.81","202","0.9","2.4","0.00","0.00"
"02:29:56","32.2","29.3","89.1","29.81","202","0.5","2.4","0.00","0.00"
"02:34:59","32.4","29.5","89","29.81","202","0.4","2.4","0.00","0.00"
"02:39:57","32.4","29.5","89.2","29.81","202","0","1.2","0.00","0.00"
"02:44:57","32.4","29.8","90","29.81","202","0","1.2","0.00","0.00"
"02:49:56","32.5","29.9","90","29.81","202","0","0","0.00","0.00"
"02:54:59","32.5","29.9","90","29.81","202","0","0","0.00","0.00"
"02:59:57","32.6","29.9","89.8","29.82","202","0","0","0.00","0.00"
"03:04:57","32.6","29.7","89","29.82","202","0","0","0.00","0.00"
"03:09:56","32.7","29.8","89","29.82","202","0","0","0.00","0.00"
"03:14:57","32.8","29.9","89","29.82","202","0","0","0.00","0.00"
"03:19:56","32.9","30","89","29.82","202","0.3","2.4","0.00","0.00"
"03:24:58","33","30.1","89","29.82","202","0","1.2","0.00","0.00"
"03:29:57","33.1","30.2","89","29.82","202","0.3","2.4","0.00","0.00"
"03:34:56","33.4","30.3","88.3","29.82","202","0.1","2.4","0.00","0.00"
"03:39:57","33.8","30.5","87.6","29.82","202","0.2","1.2","0.00","0.00"
"03:44:57","34","30.3","86.3","29.82","200","1.9","4.8","0.00","0.00"
"03:49:55","34.4","30.5","85.4","29.82","199","0.6","3.5","0.00","0.00"
"03:54:59","34.8","30.3","83.6","29.82","200","0.3","2.3","0.00","0.00"
"03:59:58","35","30.2","82.4","29.82","240","0.5","4.8","0.00","0.00"
"04:04:59","34.7","30","82.9","29.81","251","2.3","4.8","0.00","0.00"
"04:09:58","34.7","30","82.7","29.81","249","1.6","6","0.00","0.00"
"04:14:56","35.4","29.7","79.5","29.81","240","3","7.2","0.00","0.00"
"04:19:58","36.3","29.9","77.3","29.81","240","2.2","4.8","0.00","0.00"
"04:24:57","36.9","29.7","75","29.81","228","3.5","7.2","0.00","0.00"
"04:29:59","37.3","29.7","73.7","29.81","226","2.1","4.8","0.00","0.00"
"04:34:58","37.7","29.5","71.9","29.81","230","1.4","4.8","0.00","0.00"
"04:39:59","37.9","29.3","71","29.81","231","1.6","4.8","0.00","0.00"
"04:44:58","38","29","69.9","29.81","232","1.2","3.6","0.00","0.00"
"04:49:56","38","28.8","69.5","29.81","237","2.2","4.8","0.00","0.00"
"04:54:59","37.9","28.5","68.7","29.81","245","2.3","7.2","0.00","0.00"
"04:59:57","38","28.3","67.5","29.82","245","2.7","6","0.00","0.00"
"05:04:59","38","28","67","29.82","296","2.5","7.2","0.00","0.00"
"05:09:58","37.9","27.6","66.3","29.82","230","3.2","7.2","0.00","0.00"
"05:14:59","38.1","27.4","64.8","29.82","252","2.2","8.4","0.00","0.00"
"05:19:57","38.1","27.3","64.8","29.82","253","2.1","3.6","0.00","0.00"
"05:24:56","38","27","64.3","29.82","242","2.2","7.2","0.00","0.00"
"05:29:59","38","26.7","63.5","29.83","233","1.7","6.9","0.00","0.00"
"05:34:58","38","26.6","63.2","29.83","233","1","2.4","0.00","0.00"
"05:39:59","37.9","26.7","63.6","29.83","233","1.7","4.8","0.00","0.00"
"05:44:58","37.8","26.3","63.1","29.84","233","0.6","3.5","0.00","0.00"
"05:49:57","37.9","26.4","63","29.84","233","0.5","2.4","0.00","0.00"
"05:54:57","37.8","26.5","63.5","29.84","233","0.6","2.4","0.00","0.00"
"05:59:59","37.6","26.3","63.5","29.84","233","0.4","2.4","0.00","0.00"
"06:04:57","37.4","26.3","64","29.84","233","0.1","1.2","0.00","0.00"
"06:09:57","37.1","26.3","64.8","29.84","233","0","0","0.00","0.00"
"06:14:58","36.8","26.3","65.5","29.85","233","0","0","0.00","0.00"
"06:19:57","36.5","26.2","66","29.85","233","0.9","3.6","0.00","0.00"
"06:24:59","36.5","26.2","66","29.85","233","1.8","3.6","0.00","0.00"
"06:29:58","36.5","26.5","66.9","29.86","233","1.4","3.6","0.00","0.00"
"06:34:57","36.6","26.5","66.5","29.86","244","2.3","8.4","0.00","0.00"
"06:39:56","36.9","27","66.9","29.86","306","3.7","8.1","0.00","0.00"
"06:44:59","37.4","27.6","67.6","29.86","312","3.4","6","0.00","0.00"
"06:49:58","37.6","28","68","29.86","316","2.4","3.6","0.00","0.00"
"06:54:57","37.8","28.2","68","29.86","324","3.2","7.2","0.00","0.00"
"06:59:59","37.9","28.3","68","29.87","315","2.2","4.8","0.00","0.00"
"07:04:53","38","28.4","68","29.87","277","2.4","7.2","0.00","0.00"
"07:09:56","38.1","28.5","68","29.87","303","2.4","4.8","0.00","0.00"
"07:14:57","38.2","28.6","68","29.87","317","2.7","6","0.00","0.00"
"07:19:56","38.2","28.7","68.3","29.87","310","1.7","3.6","0.00","0.00"
"07:24:59","38.1","28.5","68","29.87","308","2.2","4.8","0.00","0.00"
"07:29:57","38.1","28.5","68","29.88","294","2.3","4.6","0.00","0.00"
"07:34:56","38","28.4","68.2","29.88","293","1.7","3.6","0.00","0.00"
"07:39:57","38","28.6","68.7","29.88","293","2.1","3.6","0.00","0.00"
"07:44:56","38","28.7","69","29.88","293","2.1","3.6","0.00","0.00"
"07:49:58","38","28.7","69","29.88","283","2.1","6","0.00","0.00"
"07:54:57","37.9","28.6","69","29.88","269","2","5.8","0.00","0.00"
"07:59:56","37.8","28.5","69","29.88","274","1.3","3.6","0.00","0.00"
"08:04:58","37.7","28.4","69","29.88","274","0.8","2.4","0.00","0.00"
"08:09:57","37.6","28.3","69","29.88","274","0.5","2.4","0.00","0.00"
"08:14:58","37.5","28.2","69","29.88","274","0.8","3.6","0.00","0.00"
"08:19:56","37.4","28.3","69.3","29.88","274","0.1","1.2","0.00","0.00"
"08:24:56","37.5","28.6","70","29.88","274","0","0","0.00","0.00"
"08:29:59","37.8","28.9","70","29.89","274","0","0","0.00","0.00"
"08:34:57","38.5","29.3","69.3","29.89","265","0.9","3.6","0.00","0.00"
"08:39:59","39.2","29.4","67.7","29.89","265","1.7","3.6","0.00","0.00"
"08:44:57","40","29.9","67","29.89","249","2.7","4.8","0.00","0.00"
"08:49:56","40.5","30.3","66.7","29.89","236","1.7","4.8","0.00","0.00"
"08:54:58","40.7","29.9","65.2","29.89","235","2","3.6","0.00","0.00"
"08:59:57","40.3","29.5","65","29.90","235","1.3","3.6","0.00","0.00"
"09:04:59","40.2","29.5","65.3","29.90","233","2","4.8","0.00","0.00"
"09:09:58","40.4","29.2","63.8","29.90","254","2","4.8","0.00","0.00"
"09:14:59","40.9","29.7","64","29.90","256","1.6","4.8","0.00","0.00"
"09:19:58","41.2","29.3","62.2","29.89","258","1.9","3.6","0.00","0.00"
"09:24:56","41.4","29.7","62.9","29.89","263","1.9","7.2","0.00","0.00"
"09:29:58","41.8","28.7","59.5","29.89","276","3.8","12","0.00","0.00"
"09:34:56","42.1","28.5","58.3","29.89","243","4.1","11.5","0.00","0.00"
"09:39:58","42.3","28.7","58.4","29.89","220","3.5","7.2","0.00","0.00"
"09:44:56","42.5","28.9","58.4","29.89","245","5.4","13.2","0.00","0.00"
"09:47:42","42.5","28.8","58.1","29.89","228","4.8","10.4","0.00","0.00"
"09:54:56","42.8","28.1","55.7","29.89","300","4.8","10.8","0.00","0.00"
"09:59:56","43","28.6","56.3","29.90","252","5.6","12","0.00","0.00"
"10:04:58","43.3","28.9","56.5","29.90","254","4.4","8.4","0.00","0.00"
"10:09:59","43.7","29.4","56.9","29.90","252","3.8","7.2","0.00","0.00"
"10:14:57","43.9","28.5","54.4","29.90","291","4.9","10.8","0.00","0.00"
"10:19:59","43.8","28.2","54","29.90","305","3.9","9.6","0.00","0.00"
"10:24:57","44","29.3","56","29.90","213","5.3","10.8","0.00","0.00"
"10:29:59","44.1","29.7","56.7","29.90","243","4","8.1","0.00","0.00"
"10:34:58","44.6","29.5","55.2","29.89","241","4.6","10.8","0.00","0.00"
"10:39:59","44.8","29","53.7","29.89","240","4.9","13.2","0.00","0.00"
"10:44:57","44.4","28.4","53.3","29.89","215","5.5","12","0.00","0.00"
"10:49:56","43.9","28.9","55.2","29.89","232","5.2","10.8","0.00","0.00"
"10:54:58","44.1","29.4","56","29.89","222","6.4","16.1","0.00","0.00"
"10:59:56","45.2","29.6","54.1","29.89","249","6","13.2","0.00","0.00"
"11:04:58","45.4","28.6","51.6","29.89","278","5","10.8","0.00","0.00"
"11:09:56","46.1","30.1","53.3","29.89","221","7.3","15.6","0.00","0.00"
"11:14:57","46.5","29.3","50.9","29.89","227","7.4","16.1","0.00","0.00"
"11:19:59","45.8","28.4","50.5","29.87","253","5.6","14.4","0.00","0.00"
"11:24:58","45.2","28.9","52.7","29.87","213","6.6","15","0.00","0.00"
"11:29:56","45","28.4","52","29.87","221","6.3","13.2","0.00","0.00"
"11:34:59","44.8","27.6","50.7","29.86","236","5.8","13.2","0.00","0.00"
"11:39:56","44.9","28.1","51.5","29.86","216","5.6","10.8","0.00","0.00"
"11:44:56","45.1","28.3","51.6","29.86","249","4.1","7.2","0.00","0.00"
"11:49:59","45","27.5","50.1","29.86","250","4.4","8.4","0.00","0.00"
"11:54:56","44.6","27.1","49.9","29.86","232","4.9","7.2","0.00","0.00"
"11:59:56","44.3","27.3","51.1","29.86","238","3.9","10.8","0.00","0.00"
"12:04:58","44.2","26.9","50.4","29.85","268","3.6","10.4","0.00","0.00"
"12:09:57","44.8","28","51.6","29.85","239","3.2","6","0.00","0.00"
"12:14:58","46.1","28.7","50.4","29.85","226","6.2","13.2","0.00","0.00"
"12:19:56","46.3","27.5","47.7","29.84","254","4.5","12.7","0.00","0.00"
"12:24:58","45.8","27.4","48.3","29.84","233","4.2","7.2","0.00","0.00"
"12:29:56","45.6","27.3","48.5","29.84","200","3.9","6","0.00","0.00"
"12:34:59","45.1","27","48.9","29.83","213","4.3","8.4","0.00","0.00"
"12:39:56","44.6","26","47.9","29.83","217","4.8","12","0.00","0.00"
"12:44:58","44.4","26.5","49.1","29.83","237","3.5","10.8","0.00","0.00"
"12:49:56","45.3","27.3","49.2","29.83","235","4.5","10.8","0.00","0.00"
"12:54:58","45.7","26.3","46.5","29.83","243","6.2","15","0.00","0.00"
"12:59:57","45.3","26.2","46.9","29.83","241","4.5","13.2","0.00","0.00"
"13:04:58","45.1","25.3","45.6","29.83","241","5.4","14.4","0.00","0.00"
"13:09:57","44.8","25.2","46","29.83","232","7.5","15","0.00","0.00"
"13:14:58","44.5","25.6","47.1","29.83","224","5.7","10.4","0.00","0.00"
"13:19:56","44.5","25.6","47.2","29.82","233","5.1","12","0.00","0.00"
"13:24:58","44.5","25.9","47.8","29.82","235","2.8","9.6","0.00","0.00"
"13:29:57","44.6","26.1","48","29.82","221","6.4","12","0.00","0.00"
"13:34:58","44.6","25.8","47.6","29.82","230","5.7","13.2","0.00","0.00"
"13:39:59","44.5","25.7","47.4","29.82","213","5","12","0.00","0.00"
"13:44:57","44.5","26.3","48.6","29.82","233","5.1","11.5","0.00","0.00"
"13:49:59","44.7","26.4","48.3","29.82","230","5.4","10.8","0.00","0.00"
"13:54:57","44.9","26.4","48.1","29.82","241","3.7","10.4","0.00","0.00"
"13:59:59","44.9","26.2","47.6","29.82","278","2.2","6","0.00","0.00"
"14:04:57","44.9","26.7","48.6","29.82","232","2.8","5.8","0.00","0.00"
"14:09:56","44.9","26.5","48.3","29.82","249","3.7","10.8","0.00","0.00"
"14:14:57","45.1","27.1","49.1","29.82","233","4","7.2","0.00","0.00"
"14:19:59","45.1","27","48.9","29.81","223","3.5","6","0.00","0.00"
"14:24:57","44.9","26.5","48","29.81","234","4.7","8.4","0.00","0.00"
"14:29:58","44.7","26.2","48","29.81","225","5.2","8.4","0.00","0.00"
"14:34:57","44.4","26","48.2","29.81","235","4.9","9.6","0.00","0.00"
"14:39:57","44.3","26.4","49.3","29.81","222","3.9","8.1","0.00","0.00"
"14:44:59","44.5","26.3","48.4","29.82","233","4.4","8.4","0.00","0.00"
"14:49:57","45","26","47","29.82","267","3.7","12","0.00","0.00"
"14:54:59","45.1","26.2","47.3","29.82","241","3.5","6","0.00","0.00"
"14:59:58","44.8","26.4","48.2","29.83","228","3.2","6","0.00","0.00"
"15:04:56","44.7","26.4","48.6","29.83","227","3.3","7.2","0.00","0.00"
"15:09:59","44.6","26.1","48.1","29.83","231","3.2","6","0.00","0.00"
"15:14:55","44.4","26.2","48.5","29.83","203","4","7.2","0.00","0.00"
"15:19:57","44.3","26.2","48.7","29.83","247","3.8","7.2","0.00","0.00"
"15:24:59","44.4","25.6","47.5","29.83","242","4.7","9.6","0.00","0.00"
"15:29:56","44.9","26.3","48","29.83","270","4.8","10.8","0.00","0.00"
"15:34:59","45.3","26.1","46.7","29.83","283","3.3","8.4","0.00","0.00"
"15:39:59","45","26.4","47.8","29.83","288","2.6","4.8","0.00","0.00"
"15:44:58","44.6","26.4","48.5","29.84","268","1.5","4.8","0.00","0.00"
"15:49:57","44.3","26.3","49","29.84","251","1.8","7.2","0.00","0.00"
"15:54:57","44.1","26.4","49.6","29.84","267","0","0","0.00","0.00"
"15:59:59","44","26","48.9","29.84","266","1.6","4.8","0.00","0.00"
"16:04:57","44","26.2","49.4","29.84","275","1.9","6","0.00","0.00"
"16:09:56","44","25.8","48.7","29.84","322","1.7","4.8","0.00","0.00"
"16:14:56","43.8","25.8","48.8","29.84","310","1.7","3.6","0.00","0.00"
"16:19:59","43.7","26","49.3","29.84","318","1.3","6","0.00","0.00"
"16:24:57","43.5","25.4","48.5","29.84","289","1.5","4.8","0.00","0.00"
"16:29:56","43.3","26.2","50.5","29.85","271","0.3","1.2","0.00","0.00"
"16:34:58","43.1","26.1","50.9","29.85","271","1.1","2.4","0.00","0.00"
"16:39:59","42.8","26.1","51.4","29.85","271","0.6","2.4","0.00","0.00"
"16:44:58","42.6","25.8","51.3","29.85","271","0","1.2","0.00","0.00"
"16:49:56","42.4","25.5","51","29.85","271","0","1.2","0.00","0.00"
"16:54:57","42.3","25.6","51.5","29.85","271","0.3","2.4","0.00","0.00"
"16:59:56","42.2","25.8","52","29.85","271","0","0","0.00","0.00"
"17:04:58","42","25.6","52","29.85","271","0","0","0.00","0.00"
"17:09:57","41.9","25.5","52","29.85","271","0","0","0.00","0.00"
"17:14:59","41.8","25.6","52.4","29.86","271","0","0","0.00","0.00"
"17:19:58","41.6","26","53.5","29.86","271","0","0","0.00","0.00"
"17:24:58","41.5","26.1","54","29.86","271","0","0","0.00","0.00"
"17:29:57","41.3","26.2","54.6","29.86","271","0","0","0.00","0.00"
"17:34:56","41","26.6","56.3","29.86","271","0","0","0.00","0.00"
"17:39:58","40.7","26.4","56.5","29.86","271","0","0","0.00","0.00"
"17:44:57","40.5","26.7","57.7","29.86","271","0","0","0.00","0.00"
"17:49:56","40.2","26.9","58.5","29.86","271","0","0","0.00","0.00"
"17:54:59","40","27","59.5","29.86","271","0","0","0.00","0.00"
"17:59:59","39.8","26.9","59.8","29.86","271","0","0","0.00","0.00"
"18:04:57","39.6","26.8","60","29.86","271","0","0","0.00","0.00"
"18:09:56","39.4","27.1","61","29.86","271","0","0","0.00","0.00"
"18:14:56","39.2","27.7","63.3","29.87","271","0","0","0.00","0.00"
"18:19:56","38.9","27.9","64.3","29.87","271","0","0","0.00","0.00"
"18:24:59","38.7","28","65.3","29.87","271","0","0","0.00","0.00"
"18:29:58","38.6","27.8","65","29.87","271","0","0","0.00","0.00"
"18:34:58","38.5","27.8","65.2","29.87","271","0","0","0.00","0.00"
"18:39:59","38.5","28","65.6","29.87","271","0","0","0.00","0.00"
"18:44:57","38.6","27.1","62.8","29.88","271","0","0","0.00","0.00"
"18:49:56","38.8","27.4","63.2","29.88","271","0","0","0.00","0.00"
"18:54:59","38.9","27.6","63.4","29.88","271","0","0","0.00","0.00"
"18:59:58","39","27.2","62.5","29.88","271","0","0","0.00","0.00"
"19:04:56","39","27.1","62","29.88","271","0","0","0.00","0.00"
"19:09:59","39","27","61.7","29.88","271","0","0","0.00","0.00"
"19:14:57","39.1","27","61.7","29.88","271","0","0","0.00","0.00"
"19:19:57","39.1","27.2","62","29.88","271","0","0","0.00","0.00"
"19:24:56","39.1","26.9","61.3","29.88","271","0","0","0.00","0.00"
"19:29:59","39.1","26.9","61.1","29.88","271","0","0","0.00","0.00"
"19:34:58","39","27.6","63.3","29.88","271","0","0","0.00","0.00"
"19:39:59","38.9","27.1","62.3","29.88","271","0","0","0.00","0.00"
"19:44:58","38.8","27.7","64.1","29.89","271","0","0","0.00","0.00"
"19:49:57","38.6","28.3","66.2","29.89","271","0","0","0.00","0.00"
"19:54:56","38.4","27.4","64.2","29.89","271","0","0","0.00","0.00"
"19:59:59","38.3","27.3","64.2","29.89","271","0","0","0.00","0.00"
"20:04:58","38.2","27.4","64.9","29.89","271","0","0","0.00","0.00"
"20:09:57","38.1","27.6","65.9","29.89","271","0","0","0.00","0.00"
"20:14:58","38","27.5","65.7","29.89","271","0","0","0.00","0.00"
"20:19:57","37.9","28.2","67.8","29.89","271","0","0","0.00","0.00"
"20:24:56","37.8","28.2","68","29.89","271","0","0","0.00","0.00"
"20:29:56","37.7","28","67.7","29.90","271","0","0","0.00","0.00"
"20:34:59","37.7","27.4","66","29.90","271","0","0","0.00","0.00"
"20:39:56","37.9","26.9","64.5","29.90","272","0","3.6","0.00","0.00"
"20:44:56","38.1","26.9","63.8","29.90","272","0.6","3.5","0.00","0.00"
"20:49:59","38.2","27.7","65.7","29.89","272","0.1","1.2","0.00","0.00"
"20:54:58","38.2","27.3","64.5","29.89","272","0.6","3.6","0.00","0.00"
"20:59:57","38.2","27.1","64","29.89","272","0.3","2.4","0.00","0.00"
"21:04:59","38.2","27.1","64.1","29.89","272","0.1","1.2","0.00","0.00"
"21:09:58","38.1","27.4","65","29.89","272","0","0","0.00","0.00"
"21:14:59","38","27.4","65.4","29.89","272","0","0","0.00","0.00"
"21:19:59","37.9","27.2","65","29.89","272","0","0","0.00","0.00"
"21:24:58","37.7","27","65","29.89","272","0","0","0.00","0.00"
"21:29:57","37.6","27.3","66","29.90","272","0","0","0.00","0.00"
"21:34:56","37.6","27.4","66.5","29.90","272","0","0","0.00","0.00"
"21:39:57","37.5","27.2","66","29.90","272","0","0","0.00","0.00"
"21:44:57","37.5","27.3","66.5","29.90","272","0","0","0.00","0.00"
"21:49:56","37.3","27.6","67.6","29.90","272","0","0","0.00","0.00"
"21:54:59","37.2","27.6","68","29.90","272","0","0","0.00","0.00"
"21:59:58","37.1","27.3","67.4","29.90","272","0","0","0.00","0.00"
"22:04:57","37.1","27.2","67","29.90","272","0","0","0.00","0.00"
"22:09:57","37.1","27.1","66.8","29.90","272","0","0","0.00","0.00"
"22:14:59","37.1","27.1","66.8","29.90","272","0","0","0.00","0.00"
"22:19:58","37.1","27.2","67","29.90","272","0","0","0.00","0.00"
"22:24:57","37","27.2","67.4","29.90","272","0","0","0.00","0.00"
"22:29:56","36.9","27.3","68","29.90","272","0","0","0.00","0.00"
"22:34:59","36.9","27.3","68","29.90","272","0","0","0.00","0.00"
"22:39:57","36.8","27.5","68.7","29.90","272","0","0","0.00","0.00"
"22:44:56","36.8","27.8","69.5","29.91","272","0","0","0.00","0.00"
"22:49:58","36.7","28.6","72.3","29.91","272","0","0","0.00","0.00"
"22:54:58","36.6","28.6","72.6","29.91","272","0","0","0.00","0.00"
"22:59:57","36.4","28.1","71.5","29.92","272","0","0","0.00","0.00"
"23:04:59","36.3","27.8","71","29.92","272","0","0","0.00","0.00"
"23:09:58","36.2","27.9","71.6","29.92","272","0","0","0.00","0.00"
"23:14:59","36.2","28.3","72.7","29.92","272","1.2","2.4","0.00","0.00"
"23:19:58","36.2","28.3","72.7","29.92","272","0.6","2.4","0.00","0.00"
"23:24:58","36.2","28","72","29.92","272","0.1","1.2","0.00","0.00"
"23:29:57","36.2","28.1","72.4","29.92","272","0","0","0.00","0.00"
"23:34:56","36.2","28.4","73","29.92","272","0","0","0.00","0.00"
"23:39:58","36.2","28.4","73","29.92","272","0.5","2.4","0.00","0.00"
"23:44:57","36.1","28.6","74","29.92","272","0.6","2.4","0.00","0.00"
"23:49:56","36.1","28.6","74","29.92","272","0.2","2.4","0.00","0.00"
"23:54:56","36.1","28.1","72.4","29.92","272","0","0","0.00","0.00"
